• In Deutschland
  • Länderverzeichnis
  • Für 7 Tage
  • Wassertemperatur
  • Satellitenkarten
  • Wetterkarte
  • Widgets
  • user-avatar
    Anmelden

    Stündliche Wetter Herāt

    Heute, 24 November, Freitag

    Zeit Temperatur Niederschläge Wind Luftdruck Luftfeuchtigkeit
    00:00 +17°C° 0 mm 4 m/S 677 mmHg 18%
    01:00 +17°C° 0 mm 3 m/S 677 mmHg 18%
    02:00 +15°C° 0 mm 4 m/S 677 mmHg 20%
    03:00 +15°C° 0 mm 4 m/S 677 mmHg 21%
    04:00 +15°C° 0 mm 4 m/S 677 mmHg 25%
    05:00 +14°C° 0,1 mm 4 m/S 678 mmHg 29%
    06:00 +14°C° 0,1 mm 3 m/S 678 mmHg 32%
    07:00 +14°C° 0,1 mm 3 m/S 678 mmHg 35%
    08:00 +16°C° 0,1 mm 3 m/S 679 mmHg 36%
    09:00 +17°C° 0,1 mm 4 m/S 679 mmHg 36%
    10:00 +18°C° 0,1 mm 4 m/S 680 mmHg 36%
    11:00 +19°C° 0 mm 5 m/S 679 mmHg 34%
    12:00 +20°C° 0 mm 5 m/S 679 mmHg 33%
    13:00 +21°C° 0 mm 5 m/S 678 mmHg 31%
    14:00 +20°C° 0 mm 5 m/S 678 mmHg 32%
    15:00 +20°C° 0 mm 5 m/S 678 mmHg 32%
    16:00 +20°C° 0 mm 5 m/S 677 mmHg 32%
    17:00 +19°C° 0 mm 5 m/S 677 mmHg 35%
    18:00 +18°C° 0 mm 4 m/S 677 mmHg 38%
    19:00 +17°C° 0 mm 4 m/S 677 mmHg 40%
    20:00 +15°C° 0 mm 4 m/S 677 mmHg 42%
    21:00 +15°C° 0 mm 4 m/S 677 mmHg 43%
    22:00 +15°C° 0 mm 4 m/S 677 mmHg 45%
    23:00 +14°C° 0 mm 4 m/S 677 mmHg 45%

    Morgen, 25 November, Samstag

    Zeit Temperatur Niederschläge Wind Luftdruck Luftfeuchtigkeit
    00:00 +14°C° 0 mm 4 m/S 677 mmHg 46%
    01:00 +14°C° 0 mm 4 m/S 677 mmHg 47%
    02:00 +13°C° 0,2 mm 4 m/S 677 mmHg 49%
    03:00 +13°C° 0,2 mm 3 m/S 677 mmHg 51%
    04:00 +12°C° 0,2 mm 3 m/S 676 mmHg 53%
    05:00 +12°C° 0,3 mm 3 m/S 677 mmHg 55%
    06:00 +12°C° 0,3 mm 3 m/S 677 mmHg 58%
    07:00 +11°C° 0,3 mm 3 m/S 678 mmHg 60%
    08:00 +12°C° 0,3 mm 3 m/S 679 mmHg 55%
    09:00 +13°C° 0,3 mm 3 m/S 680 mmHg 51%
    10:00 +14°C° 0,3 mm 4 m/S 681 mmHg 46%
    11:00 +14°C° 0,1 mm 4 m/S 681 mmHg 40%
    12:00 +15°C° 0,1 mm 5 m/S 681 mmHg 34%
    13:00 +16°C° 0,1 mm 6 m/S 681 mmHg 29%
    14:00 +15°C° 0 mm 6 m/S 681 mmHg 27%
    15:00 +15°C° 0 mm 6 m/S 681 mmHg 24%
    16:00 +14°C° 0 mm 6 m/S 681 mmHg 22%
    17:00 +13°C° 0 mm 5 m/S 682 mmHg 24%
    18:00 +12°C° 0 mm 4 m/S 682 mmHg 26%
    19:00 +11°C° 0 mm 3 m/S 682 mmHg 28%
    20:00 +10°C° 0 mm 2 m/S 683 mmHg 28%
    21:00 +9°C° 0 mm 2 m/S 683 mmHg 28%
    22:00 +8°C° 0 mm 2 m/S 683 mmHg 28%
    23:00 +8°C° 0 mm 2 m/S 683 mmHg 29%

    übermorgen, 26 November, Sonntag

    Zeit Temperatur Niederschläge Wind Luftdruck Luftfeuchtigkeit
    00:00 +7°C° 0 mm 2 m/S 683 mmHg 30%
    01:00 +7°C° 0 mm 2 m/S 684 mmHg 30%
    02:00 +7°C° 0 mm 2 m/S 684 mmHg 31%
    03:00 +7°C° 0 mm 2 m/S 684 mmHg 31%
    04:00 +6°C° 0 mm 2 m/S 684 mmHg 32%
    05:00 +6°C° 0 mm 2 m/S 685 mmHg 32%
    06:00 +6°C° 0 mm 2 m/S 685 mmHg 33%
    07:00 +6°C° 0 mm 2 m/S 686 mmHg 34%
    08:00 +7°C° 0 mm 2 m/S 686 mmHg 32%
    09:00 +8°C° 0 mm 2 m/S 687 mmHg 30%
    10:00 +10°C° 0 mm 2 m/S 687 mmHg 28%
    11:00 +10°C° 0 mm 2 m/S 687 mmHg 27%
    12:00 +12°C° 0 mm 2 m/S 686 mmHg 26%
    13:00 +13°C° 0 mm 2 m/S 686 mmHg 25%
    14:00 +12°C° 0 mm 2 m/S 686 mmHg 26%
    15:00 +11°C° 0 mm 3 m/S 685 mmHg 28%
    16:00 +11°C° 0 mm 3 m/S 685 mmHg 29%
    17:00 +10°C° 0 mm 3 m/S 685 mmHg 35%
    18:00 +9°C° 0 mm 3 m/S 685 mmHg 40%
    19:00 +8°C° 0 mm 3 m/S 686 mmHg 46%
    20:00 +8°C° 0 mm 2 m/S 685 mmHg 47%
    21:00 +7°C° 0 mm 2 m/S 685 mmHg 49%
    22:00 +7°C° 0 mm 2 m/S 685 mmHg 50%
    23:00 +6°C° 0 mm 2 m/S 685 mmHg 49%

    27 November, Montag

    Zeit Temperatur Niederschläge Wind Luftdruck Luftfeuchtigkeit
    00:00 +6°C° 0 mm 2 m/S 684 mmHg 48%
    01:00 +7°C° 0 mm 1 m/S 684 mmHg 47%
    02:00 +6°C° 0 mm 1 m/S 683 mmHg 45%
    03:00 +6°C° 0 mm 1 m/S 683 mmHg 43%
    04:00 +6°C° 0 mm 1 m/S 683 mmHg 41%
    05:00 +6°C° 0 mm 1 m/S 683 mmHg 38%
    06:00 +6°C° 0 mm 1 m/S 682 mmHg 36%
    07:00 +6°C° 0 mm 1 m/S 682 mmHg 34%
    08:00 +8°C° 0 mm 1 m/S 683 mmHg 29%
    09:00 +11°C° 0 mm 1 m/S 683 mmHg 23%
    10:00 +13°C° 0 mm 1 m/S 684 mmHg 18%
    11:00 +14°C° 0 mm 1 m/S 683 mmHg 17%
    12:00 +15°C° 0 mm 1 m/S 683 mmHg 16%
    13:00 +16°C° 0 mm 2 m/S 682 mmHg 14%
    14:00 +16°C° 0 mm 2 m/S 682 mmHg 15%
    15:00 +16°C° 0 mm 2 m/S 681 mmHg 16%
    16:00 +15°C° 0 mm 2 m/S 681 mmHg 16%
    17:00 +14°C° 0 mm 1 m/S 681 mmHg 18%
    18:00 +13°C° 0 mm 1 m/S 681 mmHg 20%
    19:00 +11°C° 0 mm 1 m/S 680 mmHg 22%
    20:00 +11°C° 0 mm 1 m/S 680 mmHg 22%
    21:00 +11°C° 0 mm 1 m/S 680 mmHg 22%
    22:00 +11°C° 0 mm 1 m/S 680 mmHg 21%
    23:00 +12°C° 0 mm 1 m/S 680 mmHg 21%

    28 November, Dienstag

    Zeit Temperatur Niederschläge Wind Luftdruck Luftfeuchtigkeit
    00:00 +12°C° 0 mm 1 m/S 680 mmHg 21%
    01:00 +12°C° 0 mm 1 m/S 679 mmHg 21%
    02:00 +12°C° 0 mm 1 m/S 679 mmHg 21%
    03:00 +12°C° 0 mm 1 m/S 679 mmHg 22%
    04:00 +11°C° 0 mm 1 m/S 679 mmHg 23%
    05:00 +11°C° 0 mm 1 m/S 679 mmHg 24%
    06:00 +11°C° 0 mm 1 m/S 679 mmHg 25%
    07:00 +11°C° 0 mm 1 m/S 679 mmHg 25%
    08:00 +12°C° 0,1 mm 1 m/S 680 mmHg 26%
    09:00 +13°C° 0,1 mm 2 m/S 680 mmHg 26%
    10:00 +14°C° 0,1 mm 2 m/S 681 mmHg 27%
    11:00 +15°C° 0 mm 2 m/S 680 mmHg 28%
    12:00 +15°C° 0 mm 2 m/S 680 mmHg 29%
    13:00 +16°C° 0 mm 1 m/S 680 mmHg 30%
    14:00 +16°C° 0 mm 2 m/S 680 mmHg 31%
    15:00 +16°C° 0 mm 2 m/S 680 mmHg 32%
    16:00 +16°C° 0 mm 2 m/S 680 mmHg 34%
    17:00 +15°C° 0 mm 2 m/S 680 mmHg 37%
    18:00 +14°C° 0 mm 1 m/S 680 mmHg 40%
    19:00 +12°C° 0 mm 1 m/S 680 mmHg 43%
    20:00 +12°C° 0 mm 1 m/S 680 mmHg 45%
    21:00 +12°C° 0 mm 1 m/S 680 mmHg 46%
    22:00 +11°C° 0 mm 1 m/S 680 mmHg 47%
    23:00 +10°C° 0 mm 2 m/S 680 mmHg 47%

    29 November, Mittwoch

    Zeit Temperatur Niederschläge Wind Luftdruck Luftfeuchtigkeit
    00:00 +10°C° 0 mm 2 m/S 680 mmHg 48%
    01:00 +9°C° 0 mm 2 m/S 680 mmHg 48%
    02:00 +9°C° 0 mm 2 m/S 681 mmHg 48%
    03:00 +9°C° 0 mm 2 m/S 681 mmHg 49%
    04:00 +8°C° 0 mm 2 m/S 681 mmHg 49%
    05:00 +8°C° 0 mm 2 m/S 681 mmHg 49%
    06:00 +8°C° 0 mm 2 m/S 682 mmHg 49%
    07:00 +8°C° 0 mm 2 m/S 682 mmHg 49%
    08:00 +9°C° 0 mm 2 m/S 682 mmHg 44%
    09:00 +12°C° 0 mm 2 m/S 683 mmHg 39%
    10:00 +14°C° 0 mm 1 m/S 684 mmHg 34%
    11:00 +15°C° 0 mm 2 m/S 683 mmHg 33%
    12:00 +15°C° 0 mm 2 m/S 683 mmHg 31%
    13:00 +16°C° 0 mm 2 m/S 682 mmHg 29%
    14:00 +16°C° 0 mm 2 m/S 682 mmHg 29%
    15:00 +16°C° 0 mm 2 m/S 682 mmHg 29%
    16:00 +15°C° 0 mm 2 m/S 682 mmHg 30%
    17:00 +14°C° 0 mm 2 m/S 682 mmHg 32%
    18:00 +13°C° 0 mm 2 m/S 682 mmHg 35%
    19:00 +12°C° 0 mm 1 m/S 682 mmHg 38%
    20:00 +11°C° 0 mm 1 m/S 682 mmHg 39%
    21:00 +11°C° 0 mm 1 m/S 682 mmHg 40%
    22:00 +10°C° 0 mm 1 m/S 682 mmHg 41%
    23:00 +10°C° 0 mm 1 m/S 681 mmHg 42%
    Mehr zeigen